Regional Weather Roundup
Issued by NWS Boston, MA

Home | Current Version | Previous Version | Text Only | Print | Product List | Glossary On
Versions: 1 2 3 4 5 6 7 8 9 10 11 12 13 14 15 16 17 18 19 20 21 22 23 24 25 26 27 28 29 30 31 32 33 34 35 36 37 38 39 40 41 42 43 44 45 46 47 48 49 50
000
ASUS41 KBOX 301310
RWRBOX

REGIONAL WEATHER ROUNDUP
NATIONAL WEATHER SERVICE TAUNTON MA
900 AM EDT TUE JUN 30 2015

NOTE:  "FAIR" INDICATES FEW OR NO CLOUDS BELOW 12,000 FEET WITH NO
SIGNIFICANT WEATHER AND/OR OBSTRUCTIONS TO VISIBILITY.  THE FOLLOWING
OBSERVATION LOCATIONS DO NOT REPORT PRESENT WEATHER...PROVINCETOWN...
SMITHFIELD...BLOCK ISLAND...KEENE...AND OXFORD.

MAZALL-301400-
EASTERN MASSACHUSETTS

CITY           SKY/WX    TMP DP  RH WIND       PRES   REMARKS
BOSTON         MOSUNNY   68  61  78 SE3       30.01R
BEVERLY        MOSUNNY   71  58  63 NW5       30.00R
LAWRENCE       SUNNY     70  58  65 W3        30.03R
BEDFORD        MOSUNNY   69  57  65 CALM      30.00S
BLUE HILL        N/A     69  58  67 CALM      30.01R
NORWOOD        SUNNY     72  60  66 CALM      30.00S
MARSHFIELD     SUNNY     72  63  73 S3        30.02S
PLYMOUTH       SUNNY     71  62  73 SW8       30.01S
TAUNTON        SUNNY     74  61  63 SW5       30.00S
NEW BEDFORD    SUNNY     73  62  68 SW8       30.00S
$$

MAZALL-301400-
CAPE COD AND THE ISLANDS

CITY           SKY/WX    TMP DP  RH WIND       PRES   REMARKS
FALMOUTH       PTSUNNY   73  61  64 SW12      30.01F
HYANNIS        SUNNY     71  64  78 SW8       30.00S
CHATHAM        MOSUNNY   71  66  84 SW7       30.03S
PROVINCETOWN   SUNNY     70  12  11 SW8       30.02S
NANTUCKET      MOSUNNY   68  64  87 SW8       30.03S
MARTHAS VNYRD  SUNNY     71  65  81 S8        30.02S
$$

MAZALL-301400-
CENTRAL AND WESTERN MASSACHUSETTS

CITY           SKY/WX    TMP DP  RH WIND       PRES   REMARKS
WORCESTER      SUNNY     69  53  56 CALM      30.02F
FITCHBURG      SUNNY     72  56  57 CALM      30.01S
ORANGE         SUNNY     66  57  72 CALM      30.01S
SPRINGFIELD    SUNNY     68  59  72 CALM      30.00R
WESTFIELD      SUNNY     67  58  72 CALM      30.01S
NORTH ADAMS    CLOUDY    65  56  72 E3        30.01S
PITTSFIELD     CLOUDY    58  57  97 CALM      30.01S
$$

RIZALL-301400-
RHODE ISLAND

CITY           SKY/WX    TMP DP  RH WIND       PRES   REMARKS
PROVIDENCE     MOSUNNY   71  62  73 SW9       30.01F
NEWPORT        SUNNY     70  64  81 CALM      30.01S
BLOCK ISLAND   SUNNY     72  63  73 SW12      30.02S
SMITHFIELD     SUNNY     70  55  60 NW3       30.02S
WESTERLY       SUNNY     71  63  75 VRB5      30.01S
$$

CTZALL-301400-
CONNECTICUT

CITY           SKY/WX    TMP DP  RH WIND       PRES   REMARKS
BRADLEY INTL   MOSUNNY   68  60  75 CALM      30.00S
HARTFORD       SUNNY     70  60  70 SE9       30.00S
BRIDGEPORT     MOSUNNY   72  63  73 S5        29.99S
DANBURY        CLOUDY    70  59  68 N3        30.01S
GROTON         SUNNY     73  63  70 W7        29.99F
NEW HAVEN      MOSUNNY   70  63  78 VRB3      29.99F
CHESTER        NOT AVBL
MERIDEN        SUNNY     71  61  70 CALM      30.00S
WILLIMANTIC    SUNNY     68  60  75 CALM      30.02S
OXFORD         MOSUNNY   70  59  68 SE3       30.03R
$$

MEZ002-015-021-024-NHZ003-005-008-011-012-014-VTZ005-008-301400-
NORTHERN NEW ENGLAND

CITY           SKY/WX    TMP DP  RH WIND       PRES   REMARKS
PORTLAND ME    MOSUNNY   71  61  70 N3        30.00R
BANGOR ME      PTSUNNY   67  58  72 S6        29.99R
CONCORD NH     SUNNY     69  58  67 W3        30.01S
MANCHESTER NH  MOSUNNY   69  57  65 N5        30.00R
NASHUA NH      SUNNY     69  57  65 N6        30.01S
PORTSMOUTH NH  MOSUNNY   69  60  71 W5        29.99R
JAFFREY NH     SUNNY     67  55  65 CALM      30.02S
KEENE NH       SUNNY     64  55  72 CALM      30.02S
BURLINGTON VT  MOSUNNY   67  57  70 S10       29.99S
MT. WASHINGTON MOSUNNY   45  41  87 N8          N/A
$$

NYZ052-076-301400-
EASTERN NEW YORK

CITY           SKY/WX    TMP DP  RH WIND       PRES   REMARKS
ALBANY         CLOUDY    67  59  75 CALM      30.00S
NEW YORK CITY  MOSUNNY   75  58  55 S7        29.97F
$$

ANZALL-301400-
MARINE OBSERVATIONS

STATION/POSITION TIME  TEMP    WIND        PRES    VSBY  WAVE
                       AIR SEA DIR/SP/G                  HT/PER
                 (UTC) (F)     (DEG/KT/KT) (MB)    (MI)  (FT/S)
BOSTON BUOY      1250   63 60     CALM     1016.3R         2/10
BUZZARDS BAY     1200          200/ 10/ 10 1016.8R
NANTUCKET SOUND  1250   67 67  220/  8/ 10 1016.5S         1/ 8
MASS BAY-STELLWA 1204   61 58  240/  4/  6 1015.1R  1 7/8  3/11
ISLE OF SHOALS   1300   63     220/  7/  7 1015.4R
S OF BLOCK IS    1208      65                N/A           4/ 7
$$

......................KEY.........................
  SKY/WX - SKY CONDITION/PRESENT WEATHER
  TMP    - TEMPERATURE IN FAHRENHEIT
  DWPT   - DEWPOINT IN FAHRENHEIT
  RH     - RELATIVE HUMIDITY IN PERCENT
  WIND   - DIRECTION AND SPEED IN MPH
  PRES   - MEAN SEA LEVEL PRESSURE IN INCHES OF HG
  WCI    - WIND CHILL INDEX
  VSB    - VISIBILITY IN MILES
  HX     - HEAT INDEX
  TC     - TEMPERATURE IN CELSIUS
  VRB    - VARIABLE WIND DIRECTION
  N/A    - NOT AVAILABLE


USA.gov is the U.S. government's official web portal to all federal, state and local government web resources and services.